This is the latest recevied weather packets stored in our database for station/object VU3IZK-13. If no packets are shown the sender has not sent any weather packets the latest 10 day(s).
| Time | Temp. | Humidity | Pressure | Rain* | Wind** | Luminosity | Snow |
|---|---|---|---|---|---|---|---|
| 1777369526 | 35° C | 37% | 0 hPa | 0 mm | - | - | - |
| 1777368606 | 35.56° C | 37% | 0 hPa | 0 mm | - | - | - |
| 1777367707 | 35° C | 39% | 0 hPa | 0 mm | - | - | - |
| 1777366807 | 35° C | 39% | 0 hPa | 0 mm | - | - | - |
| 1777365929 | 35° C | 43% | 0 hPa | 0 mm | - | - | - |
| 1777365011 | 34.44° C | 40% | 0 hPa | 0 mm | - | - | - |
| 1777364110 | 33.89° C | 42% | 0 hPa | 0 mm | - | - | - |
| 1777363210 | 33.89° C | 43% | 0 hPa | 0 mm | - | - | - |
| 1777362332 | 33.89° C | 43% | 0 hPa | 0 mm | - | - | - |
| 1777361412 | 33.33° C | 46% | 0 hPa | 0 mm | - | - | - |
| 1777360512 | 33.33° C | 46% | 0 hPa | 0 mm | - | - | - |
| 1777359631 | 33.33° C | 44% | 0 hPa | 0 mm | - | - | - |
| 1777358731 | 32.78° C | 42% | 0 hPa | 0 mm | - | - | - |
| 1777357809 | 32.22° C | 45% | 0 hPa | 0 mm | - | - | - |
| 1777356910 | 32.22° C | 47% | 0 hPa | 0 mm | - | - | - |
| 1777356034 | 31.67° C | 43% | 0 hPa | 0 mm | - | - | - |
| 1777355133 | 31.67° C | 44% | 0 hPa | 0 mm | - | - | - |
| 1777354209 | 31.11° C | 47% | 0 hPa | 0 mm | - | - | - |
| 1777353309 | 30.56° C | 45% | 0 hPa | 0 mm | - | - | - |
| 1777352431 | 30.56° C | 42% | 0 hPa | 0 mm | - | - | - |
| 1777351511 | 30.56° C | 43% | 0 hPa | 0 mm | - | - | - |
| 1777350611 | 30.56° C | 43% | 0 hPa | 0 mm | - | - | - |
| 1777349712 | 30° C | 47% | 0 hPa | 0 mm | - | - | - |
| 1777348833 | 29.44° C | 52% | 0 hPa | 0 mm | - | - | - |
| 1777347915 | 28.89° C | 56% | 0 hPa | 0 mm | - | - | - |
* Rain latest hour (hover to see other rain measurements)
** Current wind speed in m/s (hover to see current wind gust speed)